• In Portugal
  • List of Countries
  • For 7 days
  • Water Temperature
  • Satellite Maps
  • Weather Map
  • Weather Widgets
  • user-avatar
    Login

    Hourly Weather Basejn

    Today, 15 December, Friday

    Time Temperature Precipitation Wind Pressure Humidity
    00:00 +23°C° 0 mm 2 mps 758 mmHg 85%
    01:00 +23°C° 0 mm 2 mps 758 mmHg 86%
    02:00 +23°C° 0 mm 1 mps 758 mmHg 87%
    03:00 +23°C° 0 mm 1 mps 758 mmHg 88%
    04:00 +22°C° 0 mm 1 mps 758 mmHg 88%
    05:00 +22°C° 0 mm 1 mps 758 mmHg 88%
    06:00 +22°C° 0 mm 1 mps 758 mmHg 87%
    07:00 +24°C° 0 mm 2 mps 758 mmHg 80%
    08:00 +26°C° 0 mm 2 mps 759 mmHg 72%
    09:00 +28°C° 0 mm 2 mps 759 mmHg 64%
    10:00 +29°C° 0 mm 2 mps 759 mmHg 58%
    11:00 +30°C° 0 mm 2 mps 759 mmHg 52%
    12:00 +33°C° 0 mm 3 mps 758 mmHg 48%
    13:00 +32°C° 0 mm 2 mps 758 mmHg 48%
    14:00 +32°C° 0 mm 2 mps 758 mmHg 47%
    15:00 +32°C° 0 mm 2 mps 757 mmHg 46%
    16:00 +30°C° 0 mm 2 mps 757 mmHg 53%
    17:00 +28°C° 0 mm 2 mps 757 mmHg 59%
    18:00 +26°C° 0 mm 2 mps 758 mmHg 66%
    19:00 +25°C° 0 mm 2 mps 758 mmHg 69%
    20:00 +24°C° 0 mm 2 mps 758 mmHg 72%
    21:00 +24°C° 0 mm 2 mps 759 mmHg 75%
    22:00 +23°C° 0 mm 2 mps 759 mmHg 77%
    23:00 +23°C° 0 mm 2 mps 759 mmHg 79%

    Tomorrow, 16 December, Saturday

    Time Temperature Precipitation Wind Pressure Humidity
    00:00 +23°C° 0 mm 1 mps 759 mmHg 81%
    01:00 +22°C° 0 mm 1 mps 759 mmHg 82%
    02:00 +22°C° 0 mm 1 mps 758 mmHg 82%
    03:00 +22°C° 0 mm 1 mps 758 mmHg 83%
    04:00 +20°C° 0 mm 2 mps 758 mmHg 81%
    05:00 +20°C° 0 mm 2 mps 759 mmHg 80%
    06:00 +19°C° 0 mm 2 mps 759 mmHg 78%
    07:00 +21°C° 0 mm 2 mps 759 mmHg 72%
    08:00 +24°C° 0 mm 3 mps 760 mmHg 65%
    09:00 +26°C° 0 mm 3 mps 760 mmHg 58%
    10:00 +28°C° 0 mm 3 mps 760 mmHg 55%
    11:00 +29°C° 0 mm 3 mps 760 mmHg 51%
    12:00 +31°C° 0 mm 3 mps 759 mmHg 48%
    13:00 +31°C° 0 mm 3 mps 759 mmHg 49%
    14:00 +32°C° 0 mm 2 mps 758 mmHg 49%
    15:00 +32°C° 0 mm 2 mps 758 mmHg 50%
    16:00 +30°C° 0 mm 2 mps 758 mmHg 55%
    17:00 +29°C° 0 mm 2 mps 758 mmHg 61%
    18:00 +27°C° 0 mm 2 mps 758 mmHg 67%
    19:00 +26°C° 0 mm 2 mps 759 mmHg 69%
    20:00 +26°C° 0 mm 2 mps 759 mmHg 72%
    21:00 +25°C° 0 mm 2 mps 760 mmHg 74%
    22:00 +25°C° 0 mm 2 mps 760 mmHg 75%
    23:00 +24°C° 0 mm 2 mps 760 mmHg 76%

    Day after tomorrow, 17 December, Sunday

    Time Temperature Precipitation Wind Pressure Humidity
    00:00 +24°C° 0 mm 2 mps 760 mmHg 77%
    01:00 +24°C° 0 mm 2 mps 760 mmHg 77%
    02:00 +24°C° 0 mm 2 mps 760 mmHg 77%
    03:00 +23°C° 0 mm 2 mps 759 mmHg 76%
    04:00 +23°C° 0 mm 2 mps 760 mmHg 75%
    05:00 +22°C° 0 mm 3 mps 760 mmHg 75%
    06:00 +22°C° 0 mm 3 mps 760 mmHg 74%
    07:00 +25°C° 0 mm 3 mps 761 mmHg 70%
    08:00 +26°C° 0 mm 3 mps 761 mmHg 66%
    09:00 +28°C° 0 mm 4 mps 762 mmHg 63%
    10:00 +29°C° 0 mm 3 mps 762 mmHg 60%
    11:00 +31°C° 0 mm 3 mps 761 mmHg 57%
    12:00 +33°C° 0 mm 3 mps 761 mmHg 54%
    13:00 +33°C° 0.1 mm 3 mps 760 mmHg 55%
    14:00 +32°C° 0.1 mm 2 mps 759 mmHg 56%
    15:00 +32°C° 0.1 mm 2 mps 759 mmHg 57%
    16:00 +30°C° 0.1 mm 2 mps 759 mmHg 61%
    17:00 +29°C° 0.1 mm 2 mps 759 mmHg 66%
    18:00 +28°C° 0.1 mm 2 mps 760 mmHg 70%
    19:00 +27°C° 0 mm 2 mps 760 mmHg 72%
    20:00 +26°C° 0 mm 2 mps 761 mmHg 74%
    21:00 +25°C° 0 mm 2 mps 761 mmHg 76%
    22:00 +25°C° 0 mm 2 mps 761 mmHg 76%
    23:00 +25°C° 0 mm 1 mps 761 mmHg 77%

    18 December, Monday

    Time Temperature Precipitation Wind Pressure Humidity
    00:00 +24°C° 0 mm 1 mps 760 mmHg 77%
    01:00 +24°C° 0 mm 1 mps 760 mmHg 78%
    02:00 +24°C° 0 mm 1 mps 759 mmHg 78%
    03:00 +23°C° 0 mm 1 mps 759 mmHg 78%
    04:00 +23°C° 0 mm 1 mps 759 mmHg 78%
    05:00 +23°C° 0 mm 2 mps 760 mmHg 78%
    06:00 +23°C° 0 mm 2 mps 760 mmHg 78%
    07:00 +24°C° 0 mm 2 mps 761 mmHg 73%
    08:00 +26°C° 0 mm 3 mps 761 mmHg 68%
    09:00 +28°C° 0 mm 3 mps 762 mmHg 64%
    10:00 +29°C° 0 mm 3 mps 761 mmHg 60%
    11:00 +30°C° 0 mm 3 mps 761 mmHg 56%
    12:00 +33°C° 0 mm 3 mps 760 mmHg 52%
    13:00 +33°C° 0 mm 3 mps 760 mmHg 52%
    14:00 +33°C° 0 mm 3 mps 759 mmHg 51%
    15:00 +32°C° 0 mm 2 mps 758 mmHg 51%
    16:00 +30°C° 0 mm 2 mps 759 mmHg 55%
    17:00 +29°C° 0 mm 2 mps 759 mmHg 60%
    18:00 +28°C° 0 mm 2 mps 759 mmHg 64%
    19:00 +27°C° 0 mm 1 mps 760 mmHg 68%
    20:00 +26°C° 0 mm 1 mps 760 mmHg 71%
    21:00 +25°C° 0 mm 1 mps 761 mmHg 74%
    22:00 +25°C° 0 mm 1 mps 761 mmHg 75%
    23:00 +24°C° 0 mm 1 mps 761 mmHg 77%

    19 December, Tuesday

    Time Temperature Precipitation Wind Pressure Humidity
    00:00 +22°C° 0 mm 0 mps 760 mmHg 78%
    01:00 +24°C° 0 mm 1 mps 760 mmHg 78%
    02:00 +24°C° 0 mm 1 mps 760 mmHg 79%
    03:00 +23°C° 0 mm 1 mps 759 mmHg 79%
    04:00 +23°C° 0 mm 1 mps 760 mmHg 79%
    05:00 +23°C° 0 mm 2 mps 760 mmHg 79%
    06:00 +23°C° 0 mm 2 mps 760 mmHg 79%
    07:00 +25°C° 0 mm 3 mps 761 mmHg 73%
    08:00 +26°C° 0 mm 3 mps 762 mmHg 68%
    09:00 +28°C° 0 mm 4 mps 762 mmHg 62%
    10:00 +29°C° 0 mm 4 mps 762 mmHg 58%
    11:00 +30°C° 0 mm 4 mps 761 mmHg 54%
    12:00 +31°C° 0 mm 3 mps 761 mmHg 49%
    13:00 +31°C° 0 mm 3 mps 760 mmHg 48%
    14:00 +31°C° 0 mm 3 mps 759 mmHg 48%
    15:00 +31°C° 0 mm 3 mps 759 mmHg 47%
    16:00 +30°C° 0 mm 2 mps 759 mmHg 52%
    17:00 +28°C° 0 mm 2 mps 760 mmHg 57%
    18:00 +26°C° 0 mm 2 mps 760 mmHg 62%
    19:00 +25°C° 0 mm 1 mps 760 mmHg 63%
    20:00 +25°C° 0 mm 1 mps 761 mmHg 64%
    21:00 +24°C° 0 mm 1 mps 762 mmHg 65%
    22:00 +24°C° 0 mm 1 mps 761 mmHg 66%
    23:00 +23°C° 0 mm 1 mps 761 mmHg 66%

    20 December, Wednesday

    Time Temperature Precipitation Wind Pressure Humidity
    00:00 +23°C° 0 mm 1 mps 761 mmHg 66%
    01:00 +23°C° 0 mm 1 mps 761 mmHg 67%
    02:00 +23°C° 0 mm 1 mps 761 mmHg 68%
    03:00 +23°C° 0 mm 1 mps 760 mmHg 68%
    04:00 +21°C° 0 mm 2 mps 761 mmHg 70%
    05:00 +21°C° 0 mm 2 mps 761 mmHg 71%
    06:00 +21°C° 0 mm 2 mps 761 mmHg 72%
    07:00 +24°C° 0 mm 3 mps 762 mmHg 65%
    08:00 +26°C° 0 mm 3 mps 763 mmHg 58%
    09:00 +27°C° 0 mm 4 mps 763 mmHg 51%
    10:00 +28°C° 0 mm 4 mps 763 mmHg 48%
    11:00 +29°C° 0 mm 3 mps 762 mmHg 44%
    12:00 +30°C° 0 mm 3 mps 762 mmHg 41%
    13:00 +31°C° 0 mm 3 mps 761 mmHg 40%
    14:00 +31°C° 0 mm 3 mps 760 mmHg 40%
    15:00 +31°C° 0 mm 2 mps 760 mmHg 39%
    16:00 +29°C° 0 mm 2 mps 760 mmHg 44%
    17:00 +27°C° 0 mm 2 mps 760 mmHg 48%
    18:00 +25°C° 0 mm 1 mps 760 mmHg 53%
    19:00 +25°C° 0 mm 1 mps 761 mmHg 56%
    20:00 +24°C° 0 mm 1 mps 761 mmHg 58%
    21:00 +23°C° 0 mm 1 mps 761 mmHg 61%
    22:00 +23°C° 0 mm 1 mps 761 mmHg 63%
    23:00 +22°C° 0 mm 1 mps 761 mmHg 66%
    Show more